Torna al catalogo

USA 469

AttivoMilitareVLEO
NORAD 62538·PAYLOAD·🇺🇸 United States

Lanciato Jan 10, 2025 da Vandenberg Space Force Base

Loading…

Prossimi Passaggi (prossime 24 ore)

TLE

ObsoletoSource: Mike McCants

Epoca: Aug 23, 2026, 20:26 UTC

1 62538U 25005G   26235.85161625 0.00000000  00000-0  00000-0 0    01
2 62538  70.0182 246.9597 0002000 274.8193  85.1806 14.96713588    02

Traccia USA 469 in tempo reale con AllMySat

Download on the App Store